Location: Armstrong Village
(14.3346°N, 120.9854°E)
Time: 12:34:30
(UTC+00:00)

Cosmos 1821 Rocket - Pass Details

Date: 17 April 2026
Orbit: 945 x 1003 km, 82.9° (Epoch: 12 May)

Event Time Altitude Azimuth Distance (km) Brightness Sun altitude
Exits shadow 12:16:01 87° 283° (WNW) 972 3.9 -30.1°
Drops below altitude 10° 12:22:15 10° 3° (N) 2,725 6.5 -31.5°
Sets 12:24:47 0° 4° (N) 3,681 7.2 -32.1°
